contact:dominique.lefevre@mio.osupytheas.fr, maurice.libes@osupytheas.fr, didier.mallarino@osupytheas.fr
Project:EMSO http://www.emso-fr.org/EMSO-France
Depth: 2436.0 m
Title:EMSO Ligure Ouest : Data MII capteur AQUADOPP
Date,Latitude,Longitude,X_East,Y_North,Z_Up,Amplitude_X,Amplitude_Y,Amplitude_Z,Batterie,SoundSpeed,Heading,Pitch,Roll,Pressure,TIS,Speed,Direction
, degrees North, degrees East, m.s-1, m.s-1,m.s-1, 1, 1, 1, Volt, m.s-1, degree, degree, degree, dbar, degree_C, m.s-1, degree
2019-07-14T00:00:41,42.805,6.029,0.039,-0.038,-0.01,105.0,104.0,101.0,13.3,1505.3,325.6,-0.7,1.8,2470.019,13.32,0.054,134.3
2019-07-14T00:03:42,42.805,6.029,0.033,-0.034,-0.014,105.0,105.0,100.0,13.4,1505.3,324.1,-0.7,1.9,2470.068,13.32,0.047,135.9
2019-07-14T00:06:43,42.805,6.029,0.023,-0.019,-0.014,103.0,105.0,99.0,13.4,1505.3,325.8,-0.7,1.9,2470.049,13.32,0.029,129.6
2019-07-14T00:09:44,42.805,6.029,0.049,-0.036,-0.026,104.0,104.0,100.0,13.4,1505.3,324.9,-0.7,1.8,2470.038,13.32,0.06,126.3
2019-07-14T00:12:45,42.805,6.029,0.056,-0.025,0.029,104.0,105.0,101.0,13.4,1505.3,326.9,-0.7,1.8,2470.049,13.32,0.061,114.1
2019-07-14T00:15:46,42.805,6.029,0.032,-0.037,-0.054,104.0,105.0,100.0,13.4,1505.3,324.1,-0.7,1.9,2470.056,13.32,0.048,139.1
2019-07-14T00:18:47,42.805,6.029,0.049,-0.031,-0.018,105.0,105.0,100.0,13.3,1505.3,325.6,-0.7,1.9,2470.025,13.32,0.057,122.3
2019-07-14T00:21:48,42.805,6.029,0.024,-0.032,-0.026,104.0,105.0,100.0,13.3,1505.3,325.2,-0.7,1.8,2470.075,13.32,0.04,143.1
2019-07-14T00:24:49,42.805,6.029,0.036,-0.04,-0.004,104.0,104.0,99.0,13.4,1505.3,327.1,-0.7,1.9,2470.087,13.32,0.053,138.0
2019-07-14T00:27:50,42.805,6.029,0.02,-0.054,-0.022,103.0,105.0,98.0,13.4,1505.3,324.6,-0.7,1.8,2470.07,13.32,0.057,159.7
2019-07-14T00:30:51,42.805,6.029,0.044,-0.039,-0.007,101.0,104.0,100.0,13.3,1505.3,328.2,-0.7,1.8,2470.045,13.32,0.058,131.6
2019-07-14T00:33:52,42.805,6.029,0.03,-0.05,-0.038,102.0,104.0,99.0,13.4,1505.3,326.2,-0.7,1.8,2470.083,13.32,0.058,149.0
2019-07-14T00:36:53,42.805,6.029,0.016,-0.039,-0.04,103.0,104.0,99.0,13.3,1505.3,324.9,-0.7,1.8,2470.024,13.32,0.042,157.7
2019-07-14T00:39:54,42.805,6.029,0.041,-0.036,-0.022,104.0,105.0,100.0,13.4,1505.3,324.7,-0.7,1.8,2470.044,13.32,0.054,131.3
2019-07-14T00:42:55,42.805,6.029,0.01,-0.037,-0.037,102.0,103.0,100.0,13.4,1505.3,326.0,-0.7,1.8,2470.007,13.32,0.038,164.9
2019-07-14T00:45:56,42.805,6.029,0.052,-0.029,-0.013,104.0,105.0,102.0,13.4,1505.3,326.9,-0.7,1.8,2470.048,13.32,0.059,119.1
2019-07-14T00:48:57,42.805,6.029,0.037,-0.027,-0.012,103.0,104.0,100.0,13.3,1505.3,325.2,-0.7,1.8,2470.088,13.32,0.045,126.1
2019-07-14T00:51:58,42.805,6.029,0.048,-0.018,-0.006,104.0,105.0,100.0,13.4,1505.3,327.6,-0.7,1.8,2470.045,13.32,0.051,110.6
2019-07-14T00:54:59,42.805,6.029,0.039,-0.03,0.007,103.0,105.0,101.0,13.4,1505.3,326.7,-0.7,1.9,2470.04,13.32,0.049,127.6
2019-07-14T00:58:00,42.805,6.029,0.031,-0.02,0.018,105.0,106.0,100.0,13.4,1505.3,323.9,-0.7,1.8,2470.033,13.32,0.036,122.8
2019-07-14T01:01:01,42.805,6.029,0.029,-0.025,-0.045,103.0,104.0,99.0,13.4,1505.3,324.7,-0.7,1.9,2470.063,13.32,0.038,130.8
2019-07-14T01:04:02,42.805,6.029,0.037,-0.029,-0.023,104.0,106.0,99.0,13.4,1505.3,327.7,-0.7,1.8,2470.084,13.32,0.047,128.1
2019-07-14T01:07:03,42.805,6.029,0.047,-0.011,-0.006,104.0,104.0,101.0,13.4,1505.3,326.2,-0.7,1.8,2470.004,13.32,0.048,103.2
2019-07-14T01:10:04,42.805,6.029,0.054,-0.031,-0.041,105.0,104.0,100.0,13.4,1505.3,324.3,-0.7,1.8,2469.994,13.32,0.062,119.9
2019-07-14T01:13:05,42.805,6.029,0.044,-0.025,0.0,104.0,106.0,100.0,13.4,1505.3,326.6,-0.7,1.8,2470.046,13.32,0.05,119.6
2019-07-14T01:16:06,42.805,6.029,0.05,-0.03,-0.034,105.0,104.0,100.0,13.3,1505.3,326.4,-0.7,1.9,2470.009,13.32,0.058,121.0
2019-07-14T01:19:07,42.805,6.029,0.034,-0.033,-0.003,105.0,105.0,100.0,13.4,1505.3,327.0,-0.7,1.9,2470.061,13.32,0.047,134.1
2019-07-14T01:22:08,42.805,6.029,0.022,-0.027,-0.017,103.0,106.0,100.0,13.3,1505.3,325.2,-0.7,1.9,2470.048,13.32,0.034,140.8
2019-07-14T01:25:09,42.805,6.029,0.038,-0.022,-0.009,104.0,105.0,101.0,13.4,1505.3,328.5,-0.7,1.9,2470.001,13.32,0.043,120.1
2019-07-14T01:28:10,42.805,6.029,0.046,-0.027,-0.016,105.0,104.0,101.0,13.4,1505.3,325.0,-0.7,1.8,2470.071,13.32,0.053,120.4
2019-07-14T01:31:11,42.805,6.029,0.026,-0.024,-0.01,104.0,104.0,101.0,13.4,1505.3,326.3,-0.7,1.8,2470.059,13.32,0.035,132.7
2019-07-14T01:34:12,42.805,6.029,0.041,-0.044,-0.008,102.0,105.0,100.0,13.3,1505.3,328.1,-0.7,1.8,2470.077,13.32,0.06,137.0
2019-07-14T01:37:13,42.805,6.029,0.042,-0.036,-0.017,103.0,106.0,99.0,13.4,1505.3,324.4,-0.7,1.9,2470.066,13.32,0.055,130.6
2019-07-14T01:40:14,42.805,6.029,0.036,-0.029,-0.043,104.0,104.0,99.0,13.4,1505.3,322.9,-0.7,1.8,2470.071,13.32,0.046,128.9
2019-07-14T01:43:15,42.805,6.029,0.051,-0.029,0.004,103.0,104.0,100.0,13.4,1505.3,325.0,-0.7,1.8,2470.07,13.32,0.058,119.6
2019-07-14T01:46:16,42.805,6.029,0.04,-0.039,-0.003,103.0,106.0,100.0,13.4,1505.3,324.4,-0.7,1.8,2470.041,13.32,0.055,134.3
2019-07-14T01:49:17,42.805,6.029,0.046,-0.008,0.015,104.0,104.0,100.0,13.4,1505.3,326.7,-0.8,1.8,2470.049,13.32,0.046,99.9
2019-07-14T01:52:18,42.805,6.029,0.026,-0.034,-0.014,105.0,106.0,100.0,13.4,1505.3,326.8,-0.7,1.8,2470.08,13.32,0.042,142.6
2019-07-14T01:55:19,42.805,6.029,0.039,-0.029,-0.011,104.0,104.0,100.0,13.4,1505.3,323.6,-0.7,1.9,2470.065,13.32,0.048,126.6
2019-07-14T01:58:20,42.805,6.029,0.043,-0.031,-0.024,103.0,105.0,100.0,13.4,1505.3,326.7,-0.7,1.8,2470.031,13.32,0.053,125.8
2019-07-14T02:01:21,42.805,6.029,0.049,-0.043,-0.009,104.0,103.0,99.0,13.4,1505.3,325.2,-0.7,1.9,2470.058,13.32,0.065,131.3
2019-07-14T02:04:22,42.805,6.029,0.042,-0.034,-0.018,103.0,104.0,100.0,13.4,1505.3,323.4,-0.7,1.8,2470.049,13.32,0.054,129.0
2019-07-14T02:07:23,42.805,6.029,0.051,-0.043,0.008,104.0,104.0,99.0,13.4,1505.3,325.9,-0.8,1.8,2470.058,13.32,0.066,130.1
2019-07-14T02:10:24,42.805,6.029,0.046,-0.017,-0.028,104.0,104.0,100.0,13.3,1505.3,324.4,-0.7,1.8,2470.023,13.32,0.049,110.3
2019-07-14T02:13:25,42.805,6.029,0.048,-0.043,-0.02,104.0,105.0,99.0,13.4,1505.3,325.1,-0.7,1.8,2470.08,13.32,0.064,131.9
2019-07-14T02:16:26,42.805,6.029,0.022,-0.043,-0.023,102.0,105.0,100.0,13.4,1505.3,326.4,-0.7,1.8,2470.1,13.32,0.048,152.9
2019-07-14T02:19:27,42.805,6.029,0.023,-0.024,0.012,103.0,105.0,100.0,13.3,1505.3,323.6,-0.7,1.9,2470.045,13.32,0.033,136.2
2019-07-14T02:22:28,42.805,6.029,0.064,-0.04,-0.02,104.0,105.0,99.0,13.3,1505.3,326.9,-0.7,1.8,2470.108,13.32,0.075,122.0
2019-07-14T02:25:29,42.805,6.029,0.037,-0.039,-0.018,104.0,104.0,100.0,13.4,1505.3,325.9,-0.7,1.9,2470.078,13.32,0.053,136.5
2019-07-14T02:28:30,42.805,6.029,0.03,-0.033,-0.026,104.0,104.0,100.0,13.4,1505.3,325.9,-0.7,1.9,2470.068,13.32,0.044,137.7
2019-07-14T02:31:31,42.805,6.029,0.034,-0.036,-0.007,103.0,103.0,99.0,13.4,1505.3,326.7,-0.7,1.8,2470.116,13.32,0.049,136.6
2019-07-14T02:34:32,42.805,6.029,0.036,-0.04,-0.018,105.0,105.0,100.0,13.4,1505.3,327.4,-0.7,1.8,2470.078,13.32,0.053,138.0
2019-07-14T02:37:33,42.805,6.029,0.019,-0.04,-0.041,103.0,105.0,99.0,13.4,1505.3,326.1,-0.7,1.8,2470.082,13.32,0.044,154.6
2019-07-14T02:40:34,42.805,6.029,0.057,-0.047,-0.017,102.0,105.0,100.0,13.3,1505.3,326.3,-0.7,1.8,2470.124,13.32,0.073,129.5
2019-07-14T02:43:35,42.805,6.029,0.039,-0.033,0.017,103.0,104.0,100.0,13.4,1505.3,327.0,-0.7,1.9,2470.091,13.32,0.051,130.2
2019-07-14T02:46:36,42.805,6.029,0.042,-0.035,-0.025,104.0,103.0,100.0,13.4,1505.3,324.3,-0.7,1.8,2470.064,13.32,0.054,129.8
2019-07-14T02:49:37,42.805,6.029,0.053,-0.023,-0.028,103.0,105.0,99.0,13.4,1505.3,327.1,-0.7,1.9,2470.119,13.32,0.057,113.5
2019-07-14T02:52:38,42.805,6.029,0.026,-0.054,-0.008,102.0,103.0,100.0,13.4,1505.3,326.9,-0.8,1.8,2470.069,13.32,0.059,154.3
2019-07-14T02:55:39,42.805,6.029,0.028,-0.015,-0.016,104.0,105.0,100.0,13.4,1505.3,326.9,-0.7,1.8,2470.112,13.32,0.031,118.2
2019-07-14T02:58:40,42.805,6.029,0.02,-0.03,-0.031,104.0,104.0,99.0,13.4,1505.3,326.9,-0.7,1.9,2470.123,13.32,0.036,146.3
2019-07-14T03:01:41,42.805,6.029,0.029,-0.013,-0.033,104.0,105.0,100.0,13.4,1505.3,324.5,-0.7,1.9,2470.119,13.32,0.031,114.1
2019-07-14T03:04:42,42.805,6.029,0.042,-0.043,-0.024,104.0,106.0,99.0,13.4,1505.3,327.5,-0.7,1.8,2470.126,13.32,0.06,135.7
2019-07-14T03:07:43,42.805,6.029,0.026,-0.029,-0.025,103.0,106.0,100.0,13.4,1505.3,327.6,-0.7,1.8,2470.1,13.32,0.038,138.1
2019-07-14T03:10:44,42.805,6.029,0.049,-0.012,-0.012,104.0,105.0,100.0,13.4,1505.3,324.8,-0.7,1.8,2470.097,13.32,0.05,103.8
2019-07-14T03:13:45,42.805,6.029,0.032,-0.024,-0.035,105.0,105.0,100.0,13.4,1505.3,324.1,-0.8,1.8,2470.096,13.32,0.04,126.9
2019-07-14T03:16:46,42.805,6.029,0.031,-0.034,-0.038,103.0,105.0,100.0,13.4,1505.3,326.6,-0.7,1.8,2470.112,13.32,0.046,137.6
2019-07-14T03:19:47,42.805,6.029,0.029,-0.02,0.0,106.0,106.0,101.0,13.4,1505.3,323.8,-0.7,1.8,2470.07,13.32,0.035,124.6
2019-07-14T03:22:48,42.805,6.029,0.039,-0.023,-0.028,103.0,105.0,99.0,13.3,1505.3,323.0,-0.7,1.8,2470.073,13.32,0.045,120.5
2019-07-14T03:25:49,42.805,6.029,0.051,-0.026,-0.01,103.0,105.0,99.0,13.4,1505.3,323.8,-0.7,1.8,2470.111,13.32,0.057,117.0
2019-07-14T03:28:50,42.805,6.029,0.015,-0.033,-0.053,103.0,105.0,101.0,13.4,1505.3,326.6,-0.7,1.8,2470.094,13.32,0.036,155.6
2019-07-14T03:31:51,42.805,6.029,0.05,-0.024,-0.028,104.0,105.0,100.0,13.4,1505.3,324.2,-0.7,1.8,2470.092,13.32,0.055,115.6
2019-07-14T03:34:52,42.805,6.029,0.019,-0.023,-0.006,105.0,105.0,100.0,13.4,1505.3,325.6,-0.7,1.8,2470.082,13.32,0.029,140.4
2019-07-14T03:37:53,42.805,6.029,0.037,-0.023,0.002,103.0,105.0,99.0,13.4,1505.3,324.8,-0.7,1.9,2470.111,13.32,0.043,121.9
2019-07-14T03:40:54,42.805,6.029,0.039,-0.056,-0.013,104.0,105.0,100.0,13.4,1505.3,327.2,-0.7,1.8,2470.116,13.32,0.068,145.1
2019-07-14T03:43:55,42.805,6.029,0.009,-0.04,-0.041,103.0,105.0,100.0,13.4,1505.3,322.9,-0.7,1.8,2470.119,13.32,0.041,167.3
2019-07-14T03:46:56,42.805,6.029,0.042,-0.03,-0.044,103.0,105.0,99.0,13.4,1505.3,322.8,-0.7,1.8,2470.13,13.32,0.051,125.5
2019-07-14T03:49:57,42.805,6.029,0.055,-0.026,0.009,104.0,105.0,100.0,13.4,1505.3,325.2,-0.7,1.8,2470.145,13.32,0.06,115.3
2019-07-14T03:52:58,42.805,6.029,0.017,-0.023,0.0,103.0,105.0,99.0,13.4,1505.3,326.2,-0.7,1.8,2470.096,13.32,0.028,143.5
2019-07-14T03:55:59,42.805,6.029,0.056,-0.035,-0.022,104.0,105.0,99.0,13.4,1505.3,326.4,-0.7,1.8,2470.105,13.32,0.066,122.0
2019-07-14T03:59:00,42.805,6.029,0.035,-0.019,-0.031,104.0,105.0,99.0,13.4,1505.3,325.1,-0.7,1.8,2470.129,13.32,0.039,118.5
2019-07-14T04:02:01,42.805,6.029,0.048,-0.033,-0.019,105.0,104.0,99.0,13.4,1505.3,328.0,-0.7,1.8,2470.126,13.32,0.058,124.5
2019-07-14T04:05:02,42.805,6.029,0.067,-0.025,-0.006,104.0,104.0,101.0,13.4,1505.3,323.3,-0.8,1.8,2470.162,13.32,0.071,110.5
2019-07-14T04:08:03,42.805,6.029,0.018,-0.032,-0.016,103.0,104.0,99.0,13.3,1505.3,322.9,-0.7,1.9,2470.16,13.32,0.036,150.6
2019-07-14T04:11:04,42.805,6.029,0.052,-0.033,-0.019,105.0,106.0,100.0,13.3,1505.3,326.6,-0.7,1.9,2470.133,13.32,0.061,122.4
2019-07-14T04:14:05,42.805,6.029,0.039,-0.038,-0.017,104.0,106.0,101.0,13.4,1505.3,326.3,-0.7,1.8,2470.135,13.32,0.054,134.3
2019-07-14T04:17:06,42.805,6.029,0.005,-0.025,-0.009,104.0,105.0,100.0,13.4,1505.3,323.2,-0.7,1.8,2470.12,13.32,0.025,168.7
2019-07-14T04:20:07,42.805,6.029,0.039,-0.035,-0.017,102.0,105.0,100.0,13.3,1505.3,325.8,-0.7,1.8,2470.174,13.32,0.052,131.9
2019-07-14T04:23:08,42.805,6.029,0.03,-0.01,-0.009,104.0,107.0,99.0,13.4,1505.3,325.5,-0.7,1.8,2470.16,13.32,0.031,108.4
2019-07-14T04:26:09,42.805,6.029,0.036,-0.028,-0.011,105.0,105.0,99.0,13.4,1505.3,326.5,-0.8,1.8,2470.141,13.32,0.045,127.9
2019-07-14T04:29:10,42.805,6.029,0.014,-0.03,-0.038,105.0,104.0,100.0,13.4,1505.3,327.6,-0.7,1.8,2470.112,13.32,0.033,155.0
2019-07-14T04:32:11,42.805,6.029,0.03,-0.032,-0.016,104.0,106.0,100.0,13.3,1505.3,322.7,-0.8,1.9,2470.103,13.32,0.043,136.9
2019-07-14T04:35:12,42.805,6.029,0.04,-0.046,-0.006,104.0,104.0,101.0,13.4,1505.3,324.6,-0.7,1.8,2470.151,13.32,0.06,139.0
2019-07-14T04:38:13,42.805,6.029,0.022,-0.008,-0.014,104.0,106.0,100.0,13.4,1505.3,323.0,-0.7,1.9,2470.141,13.32,0.023,110.0
2019-07-14T04:41:14,42.805,6.029,0.04,-0.04,-0.006,104.0,107.0,99.0,13.3,1505.3,323.4,-0.7,1.8,2470.159,13.32,0.056,135.0
2019-07-14T04:44:15,42.805,6.029,0.025,-0.039,-0.038,103.0,106.0,99.0,13.4,1505.3,324.9,-0.7,1.8,2470.134,13.32,0.046,147.3
2019-07-14T04:47:16,42.805,6.029,0.024,-0.021,0.011,104.0,105.0,100.0,13.3,1505.3,323.7,-0.7,1.8,2470.169,13.32,0.031,131.2
2019-07-14T04:50:17,42.805,6.029,0.032,-0.038,0.002,106.0,104.0,102.0,13.3,1505.3,325.9,-0.7,1.8,2470.124,13.32,0.049,139.9
2019-07-14T04:53:18,42.805,6.029,0.034,-0.025,-0.01,105.0,105.0,100.0,13.4,1505.3,324.2,-0.7,1.8,2470.145,13.32,0.042,126.3
2019-07-14T04:56:19,42.805,6.029,0.035,-0.044,0.004,104.0,106.0,100.0,13.3,1505.3,327.1,-0.7,1.9,2470.155,13.32,0.056,141.5
2019-07-14T04:59:20,42.805,6.029,0.014,-0.036,-0.041,105.0,106.0,100.0,13.4,1505.3,323.0,-0.7,1.9,2470.145,13.32,0.038,158.8
2019-07-14T05:02:21,42.805,6.029,0.042,-0.026,-0.024,105.0,106.0,99.0,13.4,1505.3,326.6,-0.7,1.8,2470.129,13.32,0.049,121.8
2019-07-14T05:05:22,42.805,6.029,-0.003,-0.046,0.0,105.0,104.0,99.0,13.4,1505.3,323.2,-0.7,1.8,2470.136,13.32,0.046,183.7
2019-07-14T05:08:23,42.805,6.029,0.024,-0.035,0.002,105.0,104.0,100.0,13.3,1505.3,326.4,-0.8,1.9,2470.116,13.32,0.042,145.6
2019-07-14T05:11:24,42.805,6.029,0.043,-0.004,-0.002,105.0,104.0,100.0,13.4,1505.3,324.7,-0.7,1.8,2470.132,13.32,0.043,95.3
2019-07-14T05:14:25,42.805,6.029,0.031,-0.001,-0.032,107.0,106.0,99.0,13.4,1505.3,326.6,-0.7,1.9,2470.205,13.32,0.031,91.8
2019-07-14T05:17:26,42.805,6.029,0.005,-0.034,-0.019,104.0,105.0,99.0,13.3,1505.3,327.5,-0.7,1.9,2470.144,13.32,0.034,171.6
2019-07-14T05:20:27,42.805,6.029,0.045,-0.039,-0.005,105.0,111.0,101.0,13.4,1505.3,327.8,-0.7,1.9,2470.103,13.32,0.059,130.9
2019-07-14T05:23:28,42.805,6.029,0.041,-0.024,0.003,103.0,105.0,101.0,13.3,1505.3,322.8,-0.7,1.8,2470.142,13.32,0.047,120.3
2019-07-14T05:26:29,42.805,6.029,0.011,-0.015,0.011,105.0,104.0,100.0,13.3,1505.3,323.3,-0.7,1.8,2470.178,13.32,0.018,143.7
2019-07-14T05:29:30,42.805,6.029,0.004,-0.033,-0.044,104.0,105.0,100.0,13.4,1505.3,326.5,-0.7,1.9,2470.124,13.32,0.033,173.1
2019-07-14T05:32:31,42.805,6.029,0.034,-0.027,0.015,102.0,105.0,100.0,13.3,1505.3,327.3,-0.7,1.8,2470.193,13.32,0.043,128.5
2019-07-14T05:35:32,42.805,6.029,0.029,-0.039,-0.021,104.0,105.0,100.0,13.3,1505.3,325.1,-0.7,1.8,2470.088,13.32,0.048,143.4
2019-07-14T05:38:33,42.805,6.029,0.011,-0.031,-0.03,103.0,104.0,99.0,13.3,1505.3,328.2,-0.7,1.8,2470.147,13.32,0.032,160.5
2019-07-14T05:41:34,42.805,6.029,0.032,-0.031,-0.008,104.0,105.0,100.0,13.4,1505.3,323.4,-0.7,1.8,2470.134,13.32,0.044,134.1
2019-07-14T05:44:35,42.805,6.029,0.039,-0.03,-0.003,104.0,106.0,101.0,13.3,1505.3,326.3,-0.7,1.8,2470.139,13.32,0.049,127.6
2019-07-14T05:47:36,42.805,6.029,0.025,-0.029,-0.012,104.0,105.0,101.0,13.4,1505.3,328.3,-0.7,1.9,2470.181,13.32,0.038,139.2
2019-07-14T05:50:37,42.805,6.029,0.037,-0.017,-0.008,104.0,105.0,99.0,13.4,1505.3,325.6,-0.7,1.8,2470.133,13.32,0.04,114.7
2019-07-14T05:53:38,42.805,6.029,0.001,-0.039,-0.01,103.0,105.0,99.0,13.4,1505.3,327.3,-0.7,1.8,2470.11,13.32,0.039,178.5
2019-07-14T05:56:39,42.805,6.029,0.037,-0.045,-0.011,103.0,104.0,100.0,13.4,1505.3,323.6,-0.7,1.9,2470.192,13.32,0.058,140.6
2019-07-14T05:59:40,42.805,6.029,0.028,-0.02,-0.02,104.0,106.0,100.0,13.4,1505.3,324.6,-0.7,1.9,2470.107,13.32,0.034,125.5
2019-07-14T06:02:41,42.805,6.029,0.016,-0.03,0.014,105.0,106.0,100.0,13.4,1505.3,323.2,-0.7,1.9,2470.142,13.32,0.034,151.9
2019-07-14T06:05:42,42.805,6.029,0.035,-0.031,-0.016,104.0,105.0,99.0,13.4,1505.3,327.0,-0.7,1.8,2470.101,13.32,0.046,131.5
2019-07-14T06:08:43,42.805,6.029,0.024,-0.043,0.006,102.0,105.0,100.0,13.4,1505.3,327.5,-0.7,1.8,2470.106,13.32,0.049,150.8
2019-07-14T06:11:44,42.805,6.029,0.018,-0.032,-0.007,104.0,105.0,99.0,13.4,1505.3,323.4,-0.7,1.8,2470.132,13.32,0.036,150.6
2019-07-14T06:14:45,42.805,6.029,0.005,-0.02,-0.02,103.0,105.0,101.0,13.3,1505.3,325.3,-0.7,1.9,2470.111,13.32,0.02,166.0
2019-07-14T06:17:46,42.805,6.029,0.017,-0.025,-0.017,107.0,105.0,99.0,13.4,1505.3,326.5,-0.7,1.8,2470.096,13.32,0.03,145.8
2019-07-14T06:20:47,42.805,6.029,0.012,-0.026,-0.003,104.0,105.0,101.0,13.4,1505.3,325.3,-0.7,1.8,2470.097,13.32,0.028,155.2
2019-07-14T06:23:48,42.805,6.029,0.01,-0.015,-0.003,104.0,107.0,99.0,13.3,1505.3,324.0,-0.7,1.8,2470.113,13.32,0.018,146.3
2019-07-14T06:26:49,42.805,6.029,0.015,-0.027,-0.021,104.0,106.0,99.0,13.4,1505.3,326.5,-0.7,1.9,2470.115,13.32,0.03,150.9
2019-07-14T06:29:50,42.805,6.029,0.027,-0.039,0.007,104.0,106.0,100.0,13.4,1505.3,326.8,-0.7,1.8,2470.129,13.32,0.047,145.3
2019-07-14T06:32:51,42.805,6.029,0.014,-0.027,-0.003,103.0,105.0,100.0,13.4,1505.3,326.2,-0.7,1.8,2470.109,13.32,0.03,152.6
2019-07-14T06:35:52,42.805,6.029,0.014,-0.018,-0.003,105.0,105.0,100.0,13.4,1505.3,323.0,-0.8,1.8,2470.117,13.32,0.022,142.1
2019-07-14T06:38:53,42.805,6.029,0.026,-0.039,-0.017,104.0,104.0,100.0,13.4,1505.3,323.5,-0.7,1.8,2470.157,13.32,0.046,146.3
2019-07-14T06:41:54,42.805,6.029,0.016,-0.024,-0.001,105.0,105.0,101.0,13.4,1505.3,326.3,-0.7,1.8,2470.115,13.32,0.028,146.3
2019-07-14T06:44:55,42.805,6.029,0.033,-0.033,-0.013,104.0,106.0,99.0,13.3,1505.3,324.8,-0.7,1.9,2470.098,13.32,0.046,135.0
2019-07-14T06:47:56,42.805,6.029,0.018,-0.03,-0.003,106.0,104.0,99.0,13.4,1505.3,325.4,-0.7,1.8,2470.072,13.32,0.034,149.0
2019-07-14T06:50:57,42.805,6.029,0.025,-0.047,0.007,103.0,105.0,100.0,13.4,1505.3,325.2,-0.7,1.8,2470.102,13.32,0.053,152.0
2019-07-14T06:53:58,42.805,6.029,0.008,-0.038,-0.01,104.0,105.0,101.0,13.4,1505.3,322.8,-0.7,1.8,2470.108,13.32,0.038,168.1
2019-07-14T06:56:59,42.805,6.029,0.022,-0.044,-0.012,105.0,106.0,98.0,13.4,1505.3,327.2,-0.7,1.8,2470.104,13.32,0.049,153.4
2019-07-14T07:00:00,42.805,6.029,0.04,-0.037,0.01,104.0,103.0,99.0,13.4,1505.3,324.6,-0.8,1.8,2470.099,13.32,0.054,132.8
2019-07-14T07:03:01,42.805,6.029,0.032,-0.029,0.006,104.0,104.0,100.0,13.3,1505.3,325.7,-0.7,1.8,2470.088,13.32,0.043,132.2
2019-07-14T07:06:02,42.805,6.029,0.022,-0.033,0.015,105.0,106.0,101.0,13.4,1505.3,328.1,-0.7,1.9,2470.098,13.32,0.039,146.3
2019-07-14T07:09:03,42.805,6.029,0.021,-0.031,-0.016,103.0,104.0,101.0,13.4,1505.3,323.3,-0.7,1.9,2470.097,13.32,0.037,145.9
2019-07-14T07:12:04,42.805,6.029,0.027,-0.027,-0.025,104.0,103.0,99.0,13.4,1505.3,326.6,-0.7,1.9,2470.077,13.32,0.038,135.0
2019-07-14T07:15:05,42.805,6.029,0.043,-0.041,0.009,104.0,104.0,99.0,13.4,1505.3,325.8,-0.7,1.9,2470.103,13.32,0.059,133.6
2019-07-14T07:18:06,42.805,6.029,0.054,-0.045,-0.049,103.0,103.0,99.0,13.4,1505.3,323.7,-0.7,1.8,2470.149,13.32,0.07,129.8
2019-07-14T07:21:07,42.805,6.029,0.015,-0.023,0.0,106.0,103.0,99.0,13.4,1505.3,326.2,-0.7,1.8,2470.085,13.32,0.027,146.9
2019-07-14T07:24:08,42.805,6.029,0.025,-0.049,-0.027,104.0,106.0,99.0,13.4,1505.3,325.3,-0.7,1.8,2470.091,13.32,0.055,153.0
2019-07-14T07:27:09,42.805,6.029,0.002,-0.044,-0.012,104.0,104.0,100.0,13.4,1505.3,325.3,-0.7,1.8,2470.102,13.32,0.044,177.4
2019-07-14T07:30:10,42.805,6.029,0.02,-0.029,-0.011,104.0,104.0,99.0,13.3,1505.3,327.5,-0.7,1.8,2470.118,13.32,0.035,145.4
2019-07-14T07:33:11,42.805,6.029,0.026,-0.048,-0.032,103.0,105.0,101.0,13.3,1505.3,327.1,-0.7,1.8,2470.092,13.32,0.054,151.6
2019-07-14T07:36:12,42.805,6.029,0.019,-0.026,0.027,107.0,106.0,100.0,13.4,1505.3,325.6,-0.7,1.8,2470.16,13.32,0.032,143.8
2019-07-14T07:39:13,42.805,6.029,0.017,-0.043,-0.013,104.0,106.0,100.0,13.4,1505.3,325.0,-0.7,1.8,2470.095,13.32,0.046,158.4
2019-07-14T07:42:14,42.805,6.029,0.047,-0.054,-0.018,103.0,104.0,100.0,13.3,1505.3,325.8,-0.7,1.8,2470.103,13.32,0.071,139.0
2019-07-14T07:45:15,42.805,6.029,0.069,-0.063,-0.021,102.0,104.0,99.0,13.4,1505.3,327.7,-0.7,1.8,2470.073,13.32,0.093,132.4
2019-07-14T07:48:16,42.805,6.029,0.014,-0.044,-0.004,103.0,103.0,99.0,13.4,1505.3,323.2,-0.7,1.8,2470.058,13.32,0.046,162.4
2019-07-14T07:51:17,42.805,6.029,0.028,-0.031,-0.033,103.0,104.0,99.0,13.4,1505.3,325.3,-0.7,1.8,2470.018,13.32,0.041,137.9
2019-07-14T07:54:18,42.805,6.029,0.018,-0.028,-0.001,104.0,104.0,99.0,13.3,1505.3,323.0,-0.7,1.8,2470.076,13.32,0.033,147.3
2019-07-14T07:57:19,42.805,6.029,0.03,-0.017,0.014,104.0,104.0,100.0,13.4,1505.3,325.6,-0.7,1.8,2470.114,13.32,0.034,119.5
2019-07-14T08:00:20,42.805,6.029,0.015,-0.031,0.007,102.0,106.0,99.0,13.3,1505.3,325.4,-0.7,1.8,2470.117,13.32,0.034,154.2
2019-07-14T08:03:21,42.805,6.029,0.012,-0.031,0.0,102.0,105.0,99.0,13.3,1505.3,324.7,-0.8,1.8,2470.087,13.32,0.033,158.8
2019-07-14T08:06:22,42.805,6.029,0.021,-0.025,-0.014,103.0,104.0,100.0,13.4,1505.3,325.0,-0.7,1.9,2470.068,13.32,0.032,140.0
2019-07-14T08:09:23,42.805,6.029,0.044,-0.022,0.011,104.0,104.0,99.0,13.4,1505.3,325.8,-0.7,1.8,2470.081,13.32,0.049,116.6
2019-07-14T08:12:24,42.805,6.029,0.015,-0.047,0.017,103.0,104.0,99.0,13.3,1505.3,323.7,-0.7,1.9,2470.019,13.32,0.049,162.3
2019-07-14T08:15:25,42.805,6.029,0.009,-0.029,0.003,104.0,104.0,100.0,13.3,1505.3,323.5,-0.7,1.8,2470.061,13.32,0.03,162.8
2019-07-14T08:18:26,42.805,6.029,0.009,-0.015,-0.009,103.0,107.0,99.0,13.3,1505.3,325.1,-0.7,1.8,2470.108,13.32,0.017,149.0
2019-07-14T08:21:27,42.805,6.029,0.01,-0.041,-0.036,103.0,105.0,100.0,13.3,1505.3,325.3,-0.7,1.8,2470.045,13.32,0.042,166.3
2019-07-14T08:24:28,42.805,6.029,0.018,-0.015,0.016,103.0,104.0,101.0,13.3,1505.3,324.6,-0.7,1.9,2470.093,13.32,0.023,129.8
2019-07-14T08:27:29,42.805,6.029,0.015,-0.041,-0.007,102.0,106.0,100.0,13.4,1505.3,324.3,-0.7,1.8,2470.102,13.32,0.043,159.9
2019-07-14T08:30:30,42.805,6.029,0.037,-0.027,0.02,105.0,105.0,99.0,13.4,1505.3,322.8,-0.7,1.8,2470.042,13.32,0.045,126.1
2019-07-14T08:33:31,42.805,6.029,0.01,-0.054,-0.028,105.0,105.0,100.0,13.3,1505.3,326.6,-0.7,1.8,2470.046,13.32,0.054,169.5
2019-07-14T08:36:32,42.805,6.029,-0.006,-0.034,-0.005,105.0,104.0,100.0,13.4,1505.3,323.2,-0.7,1.8,2470.048,13.32,0.034,190.0
2019-07-14T08:39:33,42.805,6.029,0.011,-0.026,-0.019,105.0,106.0,100.0,13.3,1505.3,326.1,-0.7,1.8,2470.101,13.32,0.028,157.1
2019-07-14T08:42:34,42.805,6.029,0.022,-0.022,0.008,105.0,106.0,100.0,13.3,1505.3,324.7,-0.7,1.8,2470.042,13.32,0.031,135.0
2019-07-14T08:45:35,42.805,6.029,0.027,-0.046,-0.024,103.0,104.0,99.0,13.3,1505.3,326.0,-0.7,1.8,2470.069,13.32,0.053,149.6
2019-07-14T08:48:36,42.805,6.029,0.024,-0.053,-0.004,105.0,106.0,98.0,13.4,1505.3,328.2,-0.7,1.8,2470.047,13.32,0.058,155.6
2019-07-14T08:51:37,42.805,6.029,0.024,-0.022,-0.024,103.0,104.0,99.0,13.4,1505.3,323.4,-0.7,1.8,2470.024,13.32,0.032,132.5
2019-07-14T08:54:38,42.805,6.029,0.019,-0.053,-0.015,103.0,104.0,98.0,13.4,1505.3,325.3,-0.7,1.9,2470.038,13.32,0.056,160.3
2019-07-14T08:57:39,42.805,6.029,0.03,-0.052,-0.032,102.0,105.0,100.0,13.4,1505.3,325.2,-0.7,1.8,2470.072,13.32,0.06,150.0
2019-07-14T09:00:40,42.805,6.029,0.004,-0.029,-0.035,103.0,104.0,101.0,13.4,1505.3,324.7,-0.7,1.8,2470.026,13.32,0.029,172.2
2019-07-14T09:03:41,42.805,6.029,0.003,-0.033,0.001,103.0,105.0,100.0,13.4,1505.3,324.4,-0.7,1.9,2470.008,13.32,0.033,174.8
2019-07-14T09:06:42,42.805,6.029,0.027,-0.031,-0.025,104.0,105.0,99.0,13.4,1505.3,327.3,-0.7,1.9,2470.054,13.32,0.041,138.9
2019-07-14T09:09:43,42.805,6.029,0.039,-0.043,-0.003,103.0,104.0,99.0,13.4,1505.3,328.0,-0.7,1.8,2470.022,13.32,0.058,137.8
2019-07-14T09:12:44,42.805,6.029,0.026,-0.024,-0.007,104.0,105.0,100.0,13.3,1505.3,324.2,-0.7,1.8,2470.047,13.32,0.035,132.7
2019-07-14T09:15:45,42.805,6.029,0.041,-0.022,-0.014,103.0,105.0,98.0,13.3,1505.3,324.3,-0.8,1.8,2470.035,13.32,0.046,118.2
2019-07-14T09:18:46,42.805,6.029,-0.006,-0.034,-0.014,103.0,106.0,100.0,13.4,1505.3,324.1,-0.7,1.8,2470.002,13.32,0.034,190.0
2019-07-14T09:21:47,42.805,6.029,0.016,-0.049,-0.028,105.0,104.0,99.0,13.4,1505.3,327.0,-0.7,1.9,2470.029,13.32,0.051,161.9
2019-07-14T09:24:48,42.805,6.029,0.006,-0.014,-0.031,105.0,104.0,99.0,13.3,1505.3,326.0,-0.7,1.8,2469.997,13.32,0.015,156.8
2019-07-14T09:27:49,42.805,6.029,0.008,-0.031,-0.014,102.0,105.0,99.0,13.4,1505.3,322.6,-0.7,1.8,2470.083,13.32,0.032,165.5